Radiation Dose at Monitoring Post of Fukushima Daini Nuclear Power Station
Date,Time,MP-1(microSv/h),MP-2(microSv/h),MP-3(microSv/h),MP-4(microSv/h),MP-5(microSv/h),MP-6(microSv/h),MP-7(microSv/h),Wind Direction,Wind Velocity(m/s),Rain
2021/12/03,00:00,0.157,0.142,0.223,0.220,0.223,0.122,0.078,southwest,5.4,Yes
2021/12/03,00:10,0.156,0.143,0.223,0.219,0.223,0.122,0.079,southwest,5.3,No
2021/12/03,00:20,0.157,0.143,0.224,0.220,0.224,0.122,0.078,southwest,4.7,No
2021/12/03,00:30,0.157,0.143,0.222,0.219,0.224,0.123,0.078,south-southwest,5.8,No
2021/12/03,00:40,0.156,0.143,0.224,0.219,0.225,0.122,0.078,south-southwest,4.8,No
2021/12/03,00:50,0.157,0.143,0.223,0.219,0.224,0.122,0.078,south-southwest,4.9,No
2021/12/03,01:00,0.157,0.143,0.224,0.219,0.223,0.121,0.078,south-southwest,5.3,No
2021/12/03,01:10,0.156,0.143,0.224,0.219,0.224,0.122,0.078,south-southwest,4.7,No
2021/12/03,01:20,0.156,0.142,0.224,0.219,0.225,0.122,0.078,south-southwest,5.1,No
2021/12/03,01:30,0.156,0.143,0.223,0.218,0.224,0.122,0.078,south-southwest,5.8,No
2021/12/03,01:40,0.156,0.142,0.224,0.220,0.225,0.122,0.078,south-southwest,5.4,No
2021/12/03,01:50,0.155,0.143,0.223,0.219,0.225,0.122,0.078,south-southwest,5.1,No
2021/12/03,02:00,0.156,0.142,0.223,0.219,0.223,0.121,0.078,south-southwest,5.0,No
2021/12/03,02:10,0.157,0.142,0.223,0.219,0.224,0.122,0.078,south,5.5,No
2021/12/03,02:20,0.156,0.142,0.223,0.219,0.225,0.122,0.078,south-southwest,5.8,No
2021/12/03,02:30,0.156,0.142,0.223,0.218,0.224,0.121,0.077,south-southwest,6.0,No
2021/12/03,02:40,0.157,0.142,0.224,0.220,0.224,0.121,0.078,south,6.3,No
2021/12/03,02:50,0.156,0.142,0.223,0.220,0.224,0.122,0.078,south,6.0,No
2021/12/03,03:00,0.156,0.143,0.223,0.218,0.224,0.122,0.079,south,6.2,No
2021/12/03,03:10,0.157,0.143,0.223,0.219,0.224,0.122,0.079,south,5.9,No
2021/12/03,03:20,0.158,0.142,0.222,0.220,0.223,0.122,0.078,south,6.8,No
2021/12/03,03:30,0.157,0.142,0.224,0.220,0.224,0.122,0.078,south,5.9,No
2021/12/03,03:40,0.157,0.143,0.222,0.219,0.223,0.122,0.078,south,4.7,No
2021/12/03,03:50,0.157,0.142,0.223,0.220,0.224,0.122,0.077,south,3.5,No
2021/12/03,04:00,0.156,0.141,0.222,0.220,0.224,0.122,0.078,south-southwest,4.5,No
2021/12/03,04:10,0.156,0.143,0.224,0.219,0.224,0.123,0.078,south-southwest,3.2,No
2021/12/03,04:20,0.157,0.143,0.223,0.220,0.224,0.122,0.078,south-southwest,3.7,No
2021/12/03,04:30,0.156,0.142,0.223,0.221,0.223,0.122,0.078,south-southwest,4.0,No
2021/12/03,04:40,0.155,0.143,0.223,0.219,0.225,0.122,0.079,south,3.9,No
2021/12/03,04:50,0.157,0.143,0.224,0.219,0.223,0.122,0.077,south-southwest,4.9,No
2021/12/03,05:00,0.157,0.142,0.222,0.219,0.223,0.122,0.078,south,3.9,No
2021/12/03,05:10,0.156,0.143,0.223,0.219,0.225,0.123,0.078,south,3.1,No
2021/12/03,05:20,0.156,0.143,0.224,0.219,0.225,0.122,0.078,south,2.9,No
2021/12/03,05:30,0.158,0.143,0.224,0.219,0.224,0.122,0.078,south,2.9,No
2021/12/03,05:40,0.157,0.143,0.223,0.220,0.224,0.121,0.078,south,3.1,No
2021/12/03,05:50,0.156,0.143,0.223,0.219,0.225,0.122,0.078,south,3.5,No
2021/12/03,06:00,0.156,0.143,0.224,0.218,0.224,0.122,0.077,south-southwest,4.1,No
2021/12/03,06:10,0.157,0.143,0.224,0.219,0.225,0.121,0.078,south,3.7,No
2021/12/03,06:20,0.156,0.142,0.224,0.220,0.225,0.122,0.078,south,4.7,No
2021/12/03,06:30,0.155,0.143,0.224,0.219,0.224,0.123,0.078,south,4.0,No
2021/12/03,06:40,0.156,0.143,0.224,0.219,0.225,0.122,0.079,south,3.7,No
2021/12/03,06:50,0.157,0.143,0.225,0.219,0.224,0.123,0.079,south,3.5,Yes
2021/12/03,07:00,0.157,0.143,0.224,0.219,0.224,0.122,0.078,south,3.1,Yes
2021/12/03,07:10,0.157,0.143,0.224,0.220,0.223,0.122,0.078,south,2.0,Yes
2021/12/03,07:20,0.157,0.144,0.224,0.218,0.224,0.123,0.078,south,1.5,No
2021/12/03,07:30,0.157,0.143,0.224,0.219,0.224,0.122,0.077,south,1.2,No
2021/12/03,07:40,0.157,0.142,0.225,0.219,0.224,0.123,0.078,-,CALM,No
2021/12/03,07:50,0.157,0.144,0.224,0.220,0.224,0.122,0.078,east-southeast,0.6,No
2021/12/03,08:00,0.159,0.143,0.223,0.218,0.224,0.122,0.078,-,CALM,No
2021/12/03,08:10,0.157,0.144,0.224,0.221,0.223,0.123,0.078,-,CALM,No
2021/12/03,08:20,0.156,0.143,0.225,0.219,0.224,0.123,0.078,east,1.0,No
2021/12/03,08:30,0.158,0.144,0.224,0.218,0.224,0.123,0.077,northeast,1.1,No
2021/12/03,08:40,0.157,0.143,0.223,0.219,0.225,0.122,0.079,north-northeast,1.3,No
2021/12/03,08:50,0.157,0.143,0.223,0.218,0.225,0.121,0.079,north-northeast,2.3,No
2021/12/03,09:00,0.157,0.143,0.225,0.220,0.224,0.121,0.079,north-northeast,1.5,No
2021/12/03,09:10,0.157,0.143,0.223,0.218,0.226,0.123,0.078,north,1.7,No
2021/12/03,09:20,0.157,0.143,0.224,0.219,0.224,0.122,0.079,north,2.2,No
2021/12/03,09:30,0.157,0.142,0.224,0.221,0.225,0.122,0.078,north-northwest,1.2,No
2021/12/03,09:40,0.158,0.143,0.224,0.218,0.224,0.122,0.078,north,2.1,No
2021/12/03,09:50,0.156,0.143,0.224,0.220,0.224,0.122,0.079,north,2.4,No
2021/12/03,10:00,0.157,0.144,0.224,0.219,0.225,0.122,0.079,north,1.1,No
2021/12/03,10:10,0.156,0.144,0.223,0.221,0.224,0.123,0.078,north-northwest,1.4,No
2021/12/03,10:20,0.157,0.143,0.224,0.218,0.227,0.123,0.079,north-northwest,2.0,No
2021/12/03,10:30,0.158,0.143,0.224,0.220,0.224,0.123,0.078,north,2.0,Yes
2021/12/03,10:40,0.157,0.143,0.225,0.219,0.226,0.123,0.079,north-northwest,1.9,Yes
2021/12/03,10:50,0.157,0.144,0.225,0.220,0.225,0.123,0.078,north,1.0,Yes
2021/12/03,11:00,0.158,0.143,0.225,0.222,0.226,0.123,0.079,north-northwest,1.3,No
2021/12/03,11:10,0.157,0.143,0.226,0.219,0.225,0.122,0.079,north,1.2,No
2021/12/03,11:20,0.158,0.143,0.224,0.222,0.225,0.123,0.079,north-northwest,0.8,No
2021/12/03,11:30,0.157,0.143,0.223,0.220,0.227,0.123,0.078,northwest,1.1,No
2021/12/03,11:40,0.158,0.144,0.225,0.220,0.225,0.123,0.077,west-northwest,0.8,No
2021/12/03,11:50,0.158,0.143,0.224,0.220,0.225,0.123,0.079,west-southwest,0.6,No
2021/12/03,12:00,0.158,0.143,0.224,0.219,0.224,0.123,0.079,south-southeast,0.8,No
2021/12/03,12:10,0.157,0.144,0.224,0.220,0.226,0.123,0.079,southeast,1.2,No
2021/12/03,12:20,0.157,0.144,0.225,0.219,0.224,0.122,0.078,east-southeast,0.7,No
2021/12/03,12:30,0.157,0.142,0.223,0.220,0.226,0.123,0.078,east-southeast,1.0,No
2021/12/03,12:40,0.157,0.144,0.224,0.218,0.224,0.122,0.078,east-southeast,1.4,No
2021/12/03,12:50,0.157,0.144,0.224,0.221,0.225,0.123,0.079,east-southeast,2.2,No
2021/12/03,13:00,0.157,0.143,0.224,0.219,0.225,0.122,0.079,east,1.7,No
2021/12/03,13:10,0.156,0.142,0.224,0.220,0.226,0.123,0.078,east-northeast,1.8,No
2021/12/03,13:20,0.157,0.143,0.224,0.218,0.224,0.122,0.078,northeast,0.9,No
2021/12/03,13:30,0.155,0.143,0.225,0.220,0.224,0.122,0.078,east,1.6,No
2021/12/03,13:40,0.158,0.142,0.222,0.219,0.225,0.122,0.077,northeast,2.5,No
2021/12/03,13:50,0.157,0.142,0.223,0.218,0.223,0.122,0.078,northeast,1.9,No
2021/12/03,14:00,0.157,0.142,0.224,0.220,0.224,0.123,0.077,east-southeast,1.4,No
2021/12/03,14:10,0.158,0.142,0.225,0.218,0.223,0.123,0.078,east,2.5,No
2021/12/03,14:20,0.157,0.142,0.224,0.220,0.224,0.122,0.077,east-southeast,2.9,No
2021/12/03,14:30,0.157,0.143,0.224,0.218,0.224,0.122,0.079,east,2.6,No
2021/12/03,14:40,0.156,0.141,0.223,0.220,0.225,0.121,0.078,northeast,1.7,No
2021/12/03,14:50,0.156,0.143,0.223,0.217,0.225,0.122,0.078,north-northeast,1.6,No
2021/12/03,15:00,0.157,0.143,0.224,0.220,0.227,0.122,0.079,north-northeast,3.2,No
2021/12/03,15:10,0.157,0.144,0.224,0.218,0.225,0.123,0.078,north-northeast,2.0,No
2021/12/03,15:20,0.157,0.143,0.224,0.220,0.225,0.123,0.079,north,3.3,No
2021/12/03,15:30,0.156,0.143,0.224,0.219,0.225,0.122,0.078,north-northwest,3.4,No
2021/12/03,15:40,0.156,0.144,0.223,0.219,0.225,0.123,0.079,north-northwest,2.9,No
2021/12/03,15:50,0.157,0.143,0.224,0.220,0.225,0.122,0.078,north,2.0,No
2021/12/03,16:00,0.156,0.142,0.224,0.219,0.225,0.122,0.078,north,2.0,No
2021/12/03,16:10,0.157,0.143,0.224,0.220,0.225,0.122,0.078,north,1.9,No
2021/12/03,16:20,0.157,0.143,0.223,0.220,0.225,0.122,0.078,north,1.7,No
2021/12/03,16:30,0.157,0.143,0.225,0.219,0.225,0.123,0.078,north,1.9,No
2021/12/03,16:40,0.157,0.144,0.224,0.220,0.226,0.122,0.078,north-northwest,3.1,No
2021/12/03,16:50,0.157,0.144,0.223,0.220,0.225,0.123,0.078,north-northwest,2.6,No
2021/12/03,17:00,0.156,0.143,0.225,0.220,0.227,0.123,0.078,north-northwest,3.5,No
2021/12/03,17:10,0.157,0.145,0.224,0.220,0.224,0.123,0.078,north-northwest,3.7,No
2021/12/03,17:20,0.157,0.143,0.224,0.221,0.225,0.123,0.078,northwest,4.3,No
2021/12/03,17:30,0.157,0.143,0.224,0.220,0.226,0.123,0.079,northwest,3.7,No
2021/12/03,17:40,0.158,0.143,0.225,0.220,0.225,0.123,0.078,west-northwest,3.8,No
2021/12/03,17:50,0.158,0.142,0.224,0.220,0.225,0.123,0.077,west-northwest,4.5,No
2021/12/03,18:00,0.157,0.144,0.224,0.220,0.224,0.123,0.078,west-northwest,4.8,No
2021/12/03,18:10,0.157,0.145,0.223,0.219,0.224,0.122,0.079,west-northwest,5.1,No
2021/12/03,18:20,0.156,0.142,0.223,0.220,0.224,0.122,0.079,west-northwest,5.5,No
2021/12/03,18:30,0.158,0.142,0.224,0.220,0.224,0.123,0.078,northwest,4.9,No
2021/12/03,18:40,0.156,0.144,0.224,0.220,0.224,0.122,0.078,northwest,4.1,No
2021/12/03,18:50,0.157,0.143,0.225,0.219,0.225,0.122,0.078,west-northwest,4.9,No
2021/12/03,19:00,0.158,0.143,0.224,0.219,0.225,0.123,0.078,west-northwest,5.2,No
2021/12/03,19:10,0.157,0.143,0.226,0.220,0.225,0.123,0.079,west-northwest,4.5,No
2021/12/03,19:20,0.157,0.144,0.223,0.219,0.223,0.122,0.078,northwest,4.3,No
2021/12/03,19:30,0.157,0.144,0.224,0.219,0.224,0.122,0.078,northwest,5.2,No
2021/12/03,19:40,0.157,0.143,0.224,0.221,0.224,0.122,0.078,west-northwest,5.9,No
2021/12/03,19:50,0.157,0.143,0.224,0.220,0.224,0.122,0.078,west-northwest,5.8,No
2021/12/03,20:00,0.157,0.144,0.224,0.219,0.225,0.122,0.079,northwest,6.2,No
2021/12/03,20:10,0.157,0.144,0.223,0.219,0.224,0.122,0.078,northwest,3.6,No
2021/12/03,20:20,0.156,0.143,0.224,0.220,0.225,0.122,0.078,north-northwest,1.9,No
2021/12/03,20:30,0.157,0.143,0.224,0.221,0.224,0.122,0.078,north,2.5,No
2021/12/03,20:40,0.157,0.144,0.224,0.219,0.226,0.122,0.078,north,2.6,No
2021/12/03,20:50,0.157,0.143,0.223,0.219,0.225,0.122,0.079,north-northeast,2.3,No
2021/12/03,21:00,0.158,0.143,0.224,0.219,0.223,0.123,0.079,north,0.7,No
2021/12/03,21:10,0.157,0.144,0.224,0.220,0.224,0.123,0.079,west-southwest,0.8,No
2021/12/03,21:20,0.157,0.142,0.225,0.219,0.225,0.122,0.078,-,CALM,No
2021/12/03,21:30,0.157,0.143,0.224,0.220,0.225,0.122,0.078,northwest,1.4,No
2021/12/03,21:40,0.157,0.143,0.224,0.220,0.225,0.123,0.078,west-northwest,1.4,No
2021/12/03,21:50,0.158,0.143,0.224,0.220,0.225,0.123,0.078,west-northwest,1.3,No
2021/12/03,22:00,0.157,0.143,0.223,0.220,0.224,0.123,0.078,northeast,0.6,No
2021/12/03,22:10,0.158,0.142,0.225,0.219,0.224,0.122,0.079,-,CALM,No
2021/12/03,22:20,0.157,0.144,0.224,0.220,0.225,0.123,0.078,-,CALM,No
2021/12/03,22:30,0.156,0.144,0.225,0.219,0.225,0.122,0.078,west-southwest,1.2,No
2021/12/03,22:40,0.157,0.144,0.225,0.219,0.225,0.121,0.078,west-northwest,1.9,No
2021/12/03,22:50,0.158,0.144,0.225,0.220,0.226,0.123,0.078,west,2.9,No
2021/12/03,23:00,0.157,0.144,0.224,0.219,0.225,0.123,0.079,west,2.3,No
2021/12/03,23:10,0.157,0.143,0.223,0.220,0.225,0.123,0.079,west,0.8,No
2021/12/03,23:20,0.156,0.143,0.224,0.220,0.224,0.122,0.078,southwest,0.6,No
2021/12/03,23:30,0.157,0.143,0.225,0.219,0.225,0.123,0.078,-,CALM,No
2021/12/03,23:40,0.158,0.143,0.224,0.219,0.224,0.123,0.078,west-northwest,0.8,No
2021/12/03,23:50,0.157,0.143,0.224,0.220,0.224,0.123,0.078,west-northwest,1.0,No
